Regional Weather Roundup
Issued by NWS

Home | Current Version | Previous Version | Graphics & Text | Print | Product List | Glossary On
Versions: 1 2 3 4 5 6 7 8 9 10 11 12 13 14 15 16 17 18 19 20 21 22 23 24 25 26 27 28 29 30 31 32 33 34 35 36 37 38 39 40 41 42 43 44 45 46 47 48 49 50
000
ASUS43 KIND 250000
RWRIN

WEATHER ROUNDUP FOR INDIANA
NATIONAL WEATHER SERVICE INDIANAPOLIS IN
800 PM EDT MON JUL 24 2017

NOTE: "FAIR" INDICATES FEW OR NO CLOUDS BELOW 12,000 FEET WITH NO
SIGNIFICANT WEATHER AND/OR OBSTRUCTIONS TO VISIBILITY.

* - STATION DOES NOT REPORT WEATHER SUCH AS PRECIPITATION OR FOG.

+ - STATION NOT QUALITY CONTROLLED BY THE NATIONAL WEATHER SERVICE.
    USE DATA WITH CAUTION...ESPECIALLY DEWPOINT AND RELATIVE
    HUMIDITY OBSERVATIONS.

INZ001>003-010>013-019-020-250100-
NORTHWEST INDIANA

CITY           SKY/WX    TMP DP  RH WIND       PRES   REMARKS
GARY /AIRPORT/ PTSUNNY   70  59  68 N5G16     30.08R
MICHIGAN CITY+ MOSUNNY   70  61  73 N8        30.07R
MONTICELLO +   SUNNY     74  61  63 N7        30.02S
6HR MIN TEMP:  73; 6HR MAX TEMP:  77;

RENSSELAER +   SUNNY     72  59  64 N6        30.06R

$$

LMZ046-743>745-250100-
SOUTHERN LAKE MICHIGAN

STATION/POSITION TIME  TEMP    WIND        PRES    WAVE
                       AIR SEA DIR/SP/G            HT
                 (UTC) (F)     (DEG/KT/KT) (MB)    (FT)
BURNS HARBOR     2340   69      10/ 10/ 13 1018.3S
MICHIGAN CITY    2330   69      20/ 10/ 12   N/A
5NW MICH CITY    2350   70 74   20/ 10/ 14   N/A     4

$$

INZ004-005-014>016-021>024-250100-
NORTH CENTRAL INDIANA

CITY           SKY/WX    TMP DP  RH WIND       PRES   REMARKS
ELKHART        SUNNY     73  57  56 CALM      30.05
GOSHEN         PTSUNNY   74  55  51 NE5       30.05S
6HR MIN TEMP:  72; 6HR MAX TEMP:  76;

SOUTH BEND     SUNNY     73  58  59 N7        30.06R
6HR MIN TEMP:  71; 6HR MAX TEMP:  76;

WARSAW +       MOSUNNY   70  55  60 NE5       30.06R

$$

INZ006>009-017-018-025>027-250100-
NORTHEAST INDIANA

CITY           SKY/WX    TMP DP  RH WIND       PRES   REMARKS
FORT WAYNE     PTSUNNY   73  57  57 NE8       30.05R
6HR MIN TEMP:  72; 6HR MAX TEMP:  77;

KENDALLVILLE + SUNNY     70  57  63 N6        30.06S

$$

INZ028-029-035-036-043>045-051>053-250100-
WEST CENTRAL INDIANA

CITY           SKY/WX    TMP DP  RH WIND       PRES   REMARKS
LAFAYETTE      MOSUNNY   75  62  64 N8        30.02R
6HR MIN TEMP:  74; 6HR MAX TEMP:  79;

TERRE HAUTE    SUNNY     79  66  64 N7        29.99S
6HR MIN TEMP:  79; 6HR MAX TEMP:  84;


$$

INZ030>032-037>040-046>048-054>057-064-065-250100-
CENTRAL INDIANA

CITY           SKY/WX    TMP DP  RH WIND       PRES   REMARKS
COLUMBUS       SUNNY     77  64  65 NE8       29.99R
FRANKFORT +    SUNNY     77  65  65 N7        30.04R
6HR MIN TEMP:  77; 6HR MAX TEMP:  81;

GREENWOOD *+   MOSUNNY  N/A N/A N/A N7        30.00R
INDIANAPOLIS   MOSUNNY   79  63  57 N10       29.99R
6HR MIN TEMP:  78; 6HR MAX TEMP:  82;

-EAGLE CREEK   SUNNY     78  63  59 N8        30.00R
6HR MIN TEMP:  78; 6HR MAX TEMP:  82;

KOKOMO +       MOSUNNY   74  62  66 NE8       30.04R
6HR MIN TEMP:  73; 6HR MAX TEMP:  80;

MT COMFORT *+  SUNNY     77  64  65 NE9       30.01S
SHELBYVILLE    SUNNY     78  64  61 NE8       30.00R
6HR MIN TEMP:  78; 6HR MAX TEMP:  83;


$$

INZ033-034-041-042-049-050-058-059-250100-
EAST CENTRAL INDIANA

CITY           SKY/WX    TMP DP  RH WIND       PRES   REMARKS
MUNCIE         MOSUNNY   75  60  59 NE8       30.03R
6HR MIN TEMP:  75; 6HR MAX TEMP:  80;

RICHMOND +     PTCLDY    72  63  73 N8        30.03R

$$

INZ060-061-067>069-081>083-085>088-250100-
SOUTHWEST INDIANA

CITY           SKY/WX    TMP DP  RH WIND       PRES   REMARKS
EVANSVILLE     SUNNY     85  68  56 NE10      29.96R
6HR MIN TEMP:  85; 6HR MAX TEMP:  92;

HUNTINGBURG *+ SUNNY     82  70  66 N5        29.97R
6HR MIN TEMP:  82; 6HR MAX TEMP:  87;


$$

INZ062-063-066-070>080-084-089>092-250100-
SOUTH CENTRAL AND SOUTHEAST INDIANA

CITY           SKY/WX    TMP DP  RH WIND       PRES   REMARKS
BLOOMINGTON    SUNNY     80  64  58 N8        29.99R
6HR MIN TEMP:  80; 6HR MAX TEMP:  85;

MADISON *+     CLEAR     81  63  54 N5        30.00S
SEYMOUR +      MOSUNNY  N/A N/A N/A NE8       29.98R

$$




USA.gov is the U.S. government's official web portal to all federal, state and local government web resources and services.